Volver al catálogo

STARLINK-5379

ActivoComunicacionesVLEO
NORAD 54868·PAYLOAD·🇺🇸 United States

Lanzado Dec 28, 2022 desde Cape Canaveral Space Force Station

Loading…

Próximos Pases (próximas 24 horas)

TLE

ActualizadoSource: CelesTrak SupGP

Época: Sep 15, 2026, 02:28 UTC

1 54868C 22177BA  26258.10326389  .00056363  00000+0  20411-2 0  2585
2 54868  43.0024 131.5723 0001809 271.0924  45.2762 15.27556618    14

Sigue STARLINK-5379 en tiempo real con AllMySat

Download on the App Store